• Join FlightAware (Why Join?)
  • Login
  • US Flag 
06:28PM EST


 

Airport Tracker/Info


-or-


 

Live Flight TrackerFlight Track Log ✈ TAM3245 ✈ 08-May-2013 ✈ SBUL / UDI - SBSP / CGH

Flight Track Log - Related Links

Times and Time Zones

All times are in EDT time to prevent confusion due to time zone crossing. See the TAM3245 flight status page for this flight to view local times or setup timezone preferences in your user account.

Time Position Orientation Groundspeed Altitude Reporting Facility
EDT Latitude Longitude Course Direction KTS MPH feet Rate Location/Type
08:03PM -19.0290 -48.2090 180° South 278 320 7,300  Level FlightAware
08:04PM -19.0680 -48.2090 180° South 295 339 8,400 2,836 Climbing FlightAware
08:04PM -19.1080 -48.2080 179° South 296 341 9,900 2,486 Climbing FlightAware
08:05PM -19.1630 -48.2060 178° South 319 367 11,300 1,976 Climbing FlightAware
08:05PM -19.2350 -48.2040 178° South 347 399 12,700 2,259 Climbing FlightAware
08:06PM -19.3030 -48.2020 178° South 349 402 14,500 2,400 Climbing FlightAware
08:07PM -19.3760 -48.2010 179° South 360 414 16,100 2,047 Climbing FlightAware
08:08PM -19.4410 -48.1990 178° South 366 421 17,400 1,950 Climbing FlightAware
08:08PM -19.5130 -48.1970 179° South 372 428 18,700 1,906 Climbing FlightAware
08:09PM -19.5890 -48.1950 179° South 379 436 20,100 1,835 Climbing FlightAware
08:10PM -19.6610 -48.1840 172° South 390 449 21,300 1,694 Climbing FlightAware
08:10PM -19.7400 -48.1710 171° South 398 458 22,500 1,624 Climbing FlightAware
08:11PM -19.8170 -48.1580 171° South 406 467 23,600 1,575 Climbing FlightAware
08:12PM -19.8920 -48.1460 171° South 413 475 24,600 1,412 Climbing FlightAware
08:12PM -19.9750 -48.1320 171° South 421 484 25,600 1,482 Climbing FlightAware
08:13PM -20.0550 -48.1190 171° South 423 487 26,700 1,482 Climbing FlightAware
08:14PM -20.1400 -48.1050 171° South 430 495 27,700 1,341 Climbing FlightAware
08:15PM -20.2200 -48.0920 171° South 436 502 28,600 1,125 Climbing FlightAware
08:15PM -20.3020 -48.0790 172° South 447 514 29,200 988 Climbing FlightAware
08:16PM -20.3960 -48.0630 171° South 455 524 30,000 1,129 Climbing FlightAware
08:17PM -20.4760 -48.0500 171° South 459 528 30,800 1,341 Climbing FlightAware
08:17PM -20.5740 -48.0340 171° South 455 524 31,900 1,553 Climbing FlightAware
08:18PM -20.6500 -48.0210 171° South 448 516 33,000 1,800 Climbing FlightAware
08:19PM -20.7380 -48.0070 172° South 436 502 34,300 1,412 Climbing FlightAware
08:19PM -20.8300 -47.9910 171° South 440 506 35,000 847 Climbing FlightAware
08:20PM -20.9050 -47.9790 171° South 444 511 35,500 706 Climbing FlightAware
08:21PM -20.9940 -47.9640 171° South 446 513 36,000 353 Climbing FlightAware
08:22PM -21.0810 -47.9500 171° South 443 510 36,000  Level FlightAware
08:22PM -21.1630 -47.9360 171° South 443 510 36,000  Level FlightAware
08:23PM -21.2550 -47.9210 171° South 445 512 36,000  Level FlightAware
08:24PM -21.3170 -47.9100 171° South 446 513 36,000 -282 Level FlightAware
08:24PM -21.4640 -47.8860 171° South 443 510 35,600 -733 Descending FlightAware
08:25PM -21.5440 -47.8720 171° South 424 488 34,900 -900 Descending FlightAware
08:26PM -21.6200 -47.8590 171° South 416 479 34,400 -918 Descending FlightAware
08:26PM -21.7090 -47.8440 171° South 412 474 33,600 -988 Descending FlightAware
08:27PM -21.7830 -47.8320 171° South 416 479 33,000 -975 Descending FlightAware
08:28PM -21.8600 -47.8190 171° South 417 480 32,300 -706 Descending FlightAware
08:29PM -21.9460 -47.8050 171° South 423 487 32,000 -212 Descending FlightAware
08:29PM -22.0210 -47.7920 171° South 420 483 32,000  Level FlightAware
08:30PM -22.1070 -47.7770 171° South 419 482 32,000  Level FlightAware
08:31PM -22.1870 -47.7640 171° South 420 483 32,000 -1,050 Level FlightAware
08:31PM -22.2640 -47.7510 171° South 426 490 30,600 -2,047 Descending FlightAware
08:32PM -22.3480 -47.7360 171° South 412 474 29,100 -2,118 Descending FlightAware
08:33PM -22.4250 -47.7230 171° South 403 464 27,600 -2,118 Descending FlightAware
08:33PM -22.5080 -47.7090 171° South 396 456 26,100 -2,047 Descending FlightAware
08:34PM -22.5800 -47.6970 171° South 391 450 24,700 -2,025 Descending FlightAware
08:35PM -22.6530 -47.6840 171° South 388 447 23,400 -1,886 Descending FlightAware
08:35PM -22.6970 -47.6600 153° Southeast 388 447 22,500 -1,840 Descending FlightAware
08:36PM -22.7540 -47.6070 139° Southeast 382 440 21,100 -1,906 Descending FlightAware
08:37PM -22.8080 -47.5560 139° Southeast 371 427 19,800 -1,840 Descending FlightAware
08:37PM -22.8530 -47.5150 140° Southeast 362 417 18,800 -1,760 Descending FlightAware
08:38PM -22.9050 -47.4670 140° Southeast 363 418 17,600 -1,835 Descending FlightAware
08:39PM -22.9630 -47.4130 139° Southeast 361 415 16,200 -1,835 Descending FlightAware
08:39PM -23.0140 -47.3660 140° Southeast 349 402 15,000 -1,694 Descending FlightAware
08:40PM -23.0670 -47.3160 139° Southeast 340 391 13,800 -1,418 Descending FlightAware
08:41PM -23.1420 -47.2470 140° Southeast 326 375 12,400 -1,400 Descending FlightAware
08:42PM -23.2060 -47.1870 139° Southeast 302 348 11,000 -1,076 Descending FlightAware
08:44PM -23.2930 -47.1050 139° Southeast 259 298 9,800 -750 Descending FlightAware
08:45PM -23.3550 -47.0490 140° Southeast 246 283 9,000 -682 Descending FlightAware
08:47PM -23.4632 -46.8927 127° Southeast  Level Estimated
08:48PM -23.5261 -46.8015 127° Southeast  Level Estimated
08:49PM -23.5757 -46.7294 127° Southeast  Level Estimated
08:50PM -23.6254 -46.6573 127° Southeast  Level Estimated
08:51PM -23.6267 -46.6554 127° Southeast  Level Estimated
08:52PM -23.6267 -46.6554 114° Southeast  Level Estimated
08:52PM -23.5290 -46.7240 114° Southeast 139 160 4,400  Level FlightAware
08:52PM -23.5400 -46.7160 146° Southeast 135 155 4,100 -800 Descending FlightAware
08:52PM -23.5520 -46.7080 149° Southeast 134 154 3,800 -771 Descending FlightAware
08:53PM -23.5810 -46.6880 148° Southeast 135 155 3,200 -720 Descending FlightAware
08:54PM -23.5950 -46.6790 149° Southeast 138 159 2,900 -655 Descending FlightAware
08:54PM -23.6090 -46.6680 144° Southeast 139 160 2,600 -429 Descending FlightAware
08:55PM -23.6310 -46.6530 148° Southeast 139 160 2,400 -300 Descending FlightAware
08:57PM -23.6267 -46.6554 333° Northwest  Level Estimated
08:58PM -23.6267 -46.6554 114° Southeast  Level Estimated
08:59PM -23.6267 -46.6554 114° Southeast  Level Estimated
09:00PM -23.6267 -46.6554 114° Southeast  Level Estimated
09:01PM -23.6267 -46.6554 114° Southeast  Level Estimated
09:02PM -23.6267 -46.6554 114° Southeast  Level Estimated
09:03PM -23.6267 -46.6554 114° Southeast  Level Estimated
09:04PM -23.6267 -46.6554 114° Southeast  Level Estimated
09:05PM -23.6267 -46.6554 114° Southeast  Level Estimated
09:06PM -23.6267 -46.6554 114° Southeast  Level Estimated
09:07PM -23.6267 -46.6554 114° Southeast  Level Estimated
09:08PM -23.6267 -46.6554 114° Southeast  Level Estimated
09:09PM -23.6267 -46.6554 114° Southeast  Level Estimated
09:10PM -23.6267 -46.6554 114° Southeast  Level Estimated
09:11PM -23.6267 -46.6554 114° Southeast  Level Estimated
09:12PM -23.6267 -46.6554 114° Southeast  Level Estimated
09:13PM -23.6267 -46.6554 114° Southeast  Level Estimated
09:14PM -23.6267 -46.6554 114° Southeast  Level Estimated
09:15PM -23.6267 -46.6554 114° Southeast  Level Estimated
09:16PM -23.6267 -46.6554 114° Southeast  Level Estimated
09:17PM -23.6267 -46.6554 114° Southeast  Level Estimated